This is the latest recevied weather packets stored in our database for station/object KO5MO-10. If no packets are shown the sender has not sent any weather packets the latest 10 day(s).
| Time | Temp. | Humidity | Pressure | Rain* | Wind** | Luminosity | Snow |
|---|---|---|---|---|---|---|---|
| 1777538403 | 18.89° C | 23% | 1006.9 hPa | - | - | - | - |
| 1777537502 | 18.89° C | 22% | 1006.9 hPa | - | - | - | - |
| 1777536602 | 19.44° C | 23% | 1007.3 hPa | - | - | - | - |
| 1777535702 | 19.44° C | 24% | 1007.3 hPa | - | - | - | - |
| 1777534802 | 20° C | 21% | 1007.1 hPa | - | - | - | - |
| 1777533001 | 19.44° C | 23% | 1007.8 hPa | - | - | - | - |
| 1777532101 | 20° C | 23% | 1007.7 hPa | - | - | - | - |
| 1777531201 | 20° C | 22% | 1007.3 hPa | - | - | - | - |
| 1777530301 | 20.56° C | 21% | 1007.4 hPa | - | - | - | - |
| 1777529401 | 20.56° C | 21% | 1007.7 hPa | - | - | - | - |
| 1777528501 | 21.11° C | 21% | 1007.6 hPa | - | - | - | - |
| 1777527600 | 21.67° C | 19% | 1007.6 hPa | - | - | - | - |
| 1777526700 | 22.22° C | 18% | 1007.7 hPa | - | - | - | - |
| 1777525800 | 22.78° C | 18% | 1007.6 hPa | - | - | - | - |
| 1777524900 | 22.78° C | 18% | 1007.8 hPa | - | - | - | - |
| 1777523999 | 22.78° C | 18% | 1007.7 hPa | - | - | - | - |
| 1777523099 | 23.89° C | 18% | 1007.6 hPa | - | - | - | - |
| 1777522199 | 24.44° C | 16% | 1007.7 hPa | - | - | - | - |
| 1777521299 | 25° C | 15% | 1007.4 hPa | - | - | - | - |
| 1777520398 | 25.56° C | 15% | 1007.2 hPa | - | - | - | - |
| 1777519498 | 26.11° C | 15% | 1007.1 hPa | - | - | - | - |
| 1777518598 | 26.11° C | 14% | 1006.7 hPa | - | - | - | - |
| 1777517698 | 26.11° C | 15% | 1006.7 hPa | - | - | - | - |
| 1777516798 | 26.67° C | 15% | 1006.6 hPa | - | - | - | - |
| 1777515898 | 27.22° C | 15% | 1006.4 hPa | - | - | - | - |
* Rain since midnight (hover to see other rain measurements)
** Current wind speed in m/s (hover to see current wind gust speed)